Location: Quedlinburg
(51.7921°N, 11.1414°E)
Time: 07:36:51
(UTC+02:00)

RS-44 - Pass Details

Date: 20 March 2026
Orbit: 1175 x 1510 km, 82.5° (Epoch: 13 April)

Event Time Altitude Azimuth Distance (km) Brightness Sun altitude
Rises 02:20:02 0° 348° (NNW) 4,421 ? -32.9°
Reaches altitude 10° 02:22:46 10° 348° (NNW) 3,486 ? -32.6°
Maximum altitude 02:31:12 83° 262° (W) 1,476 ? -31.8°
Enters shadow 02:32:31 68° 191° (S) 1,567 ? -31.7°
